Flag for Finland Weather past 2 weeks in Joensuu, Finland

Now
30 °F

Overcast.


Feels Like: 27 °F
Forecast: 30 / 36 °F
Wind: 3 mph from South

Location: Joensuu Airport

Current Time: Mar 6, 2015 at 2:33:53 AM

Latest Report: Mar 6, 2015 at 1:50 AM


Visibility: N/A

Pressure: 30.21 "Hg

Humidity: 93%

Dew point: 28 °F

Location of JoensuuLocation

Historic Weather in Joensuu — Graph

°F

Joensuu temperature yesterday

Maximum temperature yesterday: 34 °F (at 12:20 AM)
Minimum temperature yesterday: 30 °F (at 11:50 PM)
Average temperature yesterday: 33 °F

Past Weeks' High & Low Weather Summary

 TemperatureHumidityPressure
High37 °F (Feb 20, 1:50 AM)100% (Feb 19, 7:50 AM)30.21 "Hg (Feb 19, 7:50 AM)
Low25 °F (Feb 19, 2:50 AM)70% (Feb 23, 2:50 PM)29.12 "Hg (Feb 22, 2:20 PM)
Average33 °F96%29.73 "Hg
* Reported Feb 19 1:20 AM — Mar 6 1:20 AM, Joensuu, Weather by CustomWeather, © 2015

Note: Actual official high and low records may vary slightly from our data, if they occured in-between our weather recording intervals... More about our weather records

Advertising

Joensuu weather history for previous 24 hours

 ConditionsComfort  
Time TempWeatherWind HumidityBarometerVisibility
1:20 AM
Fri, Mar 6
30 °FOvercast.5 mph93%30.21 "HgN/A
12:50 AM30 °FOvercast.6 mph93%30.21 "HgN/A
12:20 AM30 °FOvercast.7 mph93%30.21 "HgN/A
11:50 PM
Thu, Mar 5
30 °FMostly cloudy.8 mph100%30.21 "HgN/A
11:20 PM32 °FLight snow. Mostly cloudy.9 mph93%30.21 "HgN/A
10:50 PM32 °FLight rain. Low clouds.7 mph100%30.21 "HgN/A
10:20 PM32 °FLight snow. Low clouds.7 mph100%30.21 "HgN/A
9:50 PM32 °FLight snow. Low clouds.6 mph100%30.21 "HgN/A
9:20 PM32 °FLight rain. Low clouds.6 mph100%30.21 "HgN/A
8:50 PM32 °FLight rain. Overcast.6 mph100%30.21 "HgN/A
8:20 PM32 °FLight rain. Mostly cloudy.6 mph100%30.21 "HgN/A
7:50 PM32 °FLight rain. Overcast.7 mph100%30.21 "Hg3 mi
7:20 PM32 °FLight rain. Overcast.7 mph100%30.21 "Hg6 mi
6:50 PM32 °FLight rain. Overcast.7 mph100%30.21 "Hg6 mi
6:20 PM34 °FLight rain. Overcast.7 mph93%30.21 "HgN/A
5:50 PM34 °FSprinkles. Low clouds.6 mph93%30.18 "HgN/A
5:20 PM34 °FSprinkles. Low clouds.6 mph93%30.18 "HgN/A
4:50 PM34 °FSprinkles. Overcast.6 mph93%30.18 "HgN/A
4:20 PM34 °FOvercast.6 mph93%30.18 "HgN/A
3:50 PM34 °FBroken clouds.8 mph93%30.18 "HgN/A
3:20 PM34 °FMore clouds than sun.8 mph93%30.18 "HgN/A
2:50 PM34 °FMore clouds than sun.6 mph93%30.18 "HgN/A
2:20 PM34 °FMostly cloudy.8 mph93%30.15 "HgN/A
1:50 PM34 °FOvercast.7 mph93%30.15 "HgN/A
1:20 PM34 °FOvercast.6 mph93%30.15 "HgN/A
12:50 PM34 °FMore clouds than sun.7 mph93%30.15 "HgN/A
12:20 PM34 °FMostly cloudy.6 mph93%30.15 "HgN/A
11:50 AM34 °FMostly cloudy.7 mph93%30.12 "HgN/A
11:20 AM34 °FMostly cloudy.8 mph93%30.12 "HgN/A
10:50 AM34 °FMostly cloudy.6 mph100%30.12 "HgN/A
10:20 AM32 °FLow clouds.7 mph100%30.09 "HgN/A
9:50 AM32 °FLow clouds.7 mph100%30.09 "HgN/A
9:20 AM32 °FLow clouds.7 mph100%30.07 "HgN/A
8:50 AM32 °FSnow flurries. Low clouds.7 mph100%30.07 "HgN/A
8:20 AM32 °FSnow flurries. Low clouds.8 mph100%30.07 "HgN/A
7:50 AM32 °FSnow flurries. Low clouds.7 mph100%30.04 "HgN/A
7:20 AM32 °FLight rain. Low clouds.7 mph100%30.04 "Hg3 mi
6:50 AM32 °FLight rain. Low clouds.7 mph100%30.04 "Hg5 mi
6:20 AM32 °FLight rain. Low clouds.7 mph100%30.01 "Hg5 mi
5:20 AM32 °FLight rain. Low clouds.7 mph100%29.98 "Hg4 mi
4:50 AM32 °FLight rain. Low clouds.7 mph100%29.98 "Hg2 mi
3:50 AM32 °FLight rain. Low clouds.8 mph100%29.95 "Hg1 mi
3:20 AM32 °FLight rain. Low clouds.8 mph100%29.95 "Hg2 mi
2:50 AM32 °FSleet. Low clouds.7 mph100%29.95 "Hg3 mi
2:20 AM32 °FLight rain. Low clouds.7 mph100%29.92 "Hg2 mi
Weather by CustomWeather, © 2015

See weather overviewHow to use our weather pages